PICARD

Satellite information

Favourite Embed

Satellite Type and Status

PAYLOADIN ORBIT

Key statistics

Satellite PICARD at a glance.

Uptime

5500

Days in orbit

Revolutions

≈ 14.5

Per day

Orbit

SSO

Sun Synchronous Orbit

Inclination

98.3

Latest

Satellite identification and parameters

Extended collection of information and parameters for PICARD.

Object identification

Identified? True

Debris? False

Object name: PICARD

International designator: 2010-028A

Object number (NORAD): 36598

Object ID (CCSDS): 36598

Country: FRANCE (FR)

Current information (Y/N): Y

RCS size: MEDIUM

Orbital parameters

Period: 99.147 minutes

Inclination: 98.2887 deg

SMA: 7096.015 km

Apoapsis: 718.807 km

Periapsis: 716.953 km

RAAN: 18.7751 deg

Eccentricy: 0.0001307

Argument of periapsis: 92.9192 deg

Mean anomaly: 267.2153 deg

Mean motion: 14.52382379 rev/day

Mean motion (dot): 0.00000247 rev/day2

B* drag term: 0.000071656 1/REarth

Two-line elements (TLE)

Creation date: July 5, 2025, 2:36 p.m.

Reference frame: TEME

Reference center: EARTH

Epoch: July 5, 2025, 1:17 p.m. UTC

TLE line 0: 0 PICARD

TLE line 1: 1 36598U 10028A 25186.55389625 .00000247 00000-0 71656-4 0 9999

TLE line 2: 2 36598 98.2887 18.7751 0001307 92.9192 267.2153 14.52382379797145

Live tracking on map

Real-time ground track for satellite PICARD.

In-orbit conjunctions

There are no conjunctions computed for PICARD, at the moment. Check back to stay up to date, as we update our databases every day.

Go to all conjunctions

Associated space launch

PICARD was lifted into orbit during the mission ‘Dnepr 1 | Prisma-Mango, Prisma-Tango, Picard, BPA-1’, on board a Dnepr space rocket.

The launch took place on June 15, 2010, 2:42 p.m. from 370/13.

For more information about the launch, click the button.

Launch to space Dnepr 1 | Prisma-Mango, Prisma-Tango, Picard, BPA-1
Dnepr 1 | Prisma-Mango, Prisma-Tango, Picard, BPA-1

Agency: N/A

Status: Launch Successful

Launch date: June 15, 2010, 2:42 p.m. UTC

Rocket: Dnepr

Launch pad: 370/13

Location: Dombarovskiy, Russian Federation

...

Latest news about this satellite

There are no fresh news available about this satellite. Check back as we update our databases every day.


Newsletter sign-up

Weekly statistics, charts and insights to help you stay on top of the space industry.